DAL1221 KMKE-KATL

Flight info

Callsign DAL1221
Flight time 1h 32m
Altitude 35000
Route UECKR6 DELHI LCOLN TTH HITMN NEWBB IHAVE MTHEW CHPPR1
Aircraft B738/M-SDE2E3FGHIRWXY/LB1

Departure

Time 2026-04-18 04:31
Airport General Mitchell International Airport (KMKE)

Arrival

Time 2026-04-18 06:04
Airport Hartsfield Jackson Atlanta International Airport (KATL)
Time Latitude Longitude Altitude Speed Heading
2026-04-18 04:12 42.94901 -87.89890 670 ft 0 kts 166°
2026-04-18 04:23 42.94910 -87.89893 680 ft 4 kts 161°
2026-04-18 04:23 42.94933 -87.89910 679 ft 4 kts 130°
2026-04-18 04:24 42.94942 -87.89939 683 ft 4 kts 74°
2026-04-18 04:24 42.94937 -87.89953 679 ft 0 kts 41°
2026-04-18 04:27 42.94941 -87.89949 679 ft 4 kts 43°
2026-04-18 04:27 42.94971 -87.89887 686 ft 9 kts 66°
2026-04-18 04:27 42.94988 -87.89807 687 ft 9 kts 90°
2026-04-18 04:28 42.94974 -87.89729 683 ft 8 kts 91°
2026-04-18 04:28 42.94973 -87.89644 687 ft 10 kts 88°
2026-04-18 04:28 42.95024 -87.89578 687 ft 12 kts
2026-04-18 04:28 42.95110 -87.89564 683 ft 16 kts
2026-04-18 04:29 42.95244 -87.89541 685 ft 21 kts
2026-04-18 04:29 42.95386 -87.89517 683 ft 20 kts
2026-04-18 04:29 42.95524 -87.89493 685 ft 20 kts
2026-04-18 04:29 42.95655 -87.89472 684 ft 18 kts
2026-04-18 04:30 42.95735 -87.89430 686 ft 10 kts 53°
2026-04-18 04:30 42.95740 -87.89337 680 ft 10 kts 112°
2026-04-18 04:30 42.95691 -87.89314 685 ft 0 kts 186°
2026-04-18 04:30 42.95680 -87.89315 684 ft 12 kts 186°
2026-04-18 04:31 42.95339 -87.89376 684 ft 86 kts 187°
2026-04-18 04:31 42.94526 -87.89518 686 ft 147 kts 187°
2026-04-18 04:31 42.93453 -87.89697 1085 ft 162 kts 187°
2026-04-18 04:31 42.92343 -87.89870 1980 ft 149 kts 189°
2026-04-18 04:32 42.91269 -87.90007 2520 ft 173 kts 188°
2026-04-18 04:32 42.89980 -87.90128 2782 ft 199 kts 186°
2026-04-18 04:32 42.88549 -87.89697 3136 ft 230 kts 157°
2026-04-18 04:32 42.87203 -87.88287 3405 ft 260 kts 143°
2026-04-18 04:33 42.85878 -87.86534 4138 ft 267 kts 141°
2026-04-18 04:33 42.84549 -87.84701 4885 ft 277 kts 141°
2026-04-18 04:33 42.83187 -87.82816 5705 ft 281 kts 141°
2026-04-18 04:33 42.81797 -87.80925 6519 ft 285 kts 141°
2026-04-18 04:34 42.80384 -87.79002 7245 ft 291 kts 139°
2026-04-18 04:34 42.78963 -87.77000 7969 ft 292 kts 141°
2026-04-18 04:34 42.77508 -87.75098 8896 ft 290 kts 142°
2026-04-18 04:34 42.76030 -87.73170 9639 ft 297 kts 141°
2026-04-18 04:35 42.74534 -87.71190 10327 ft 302 kts 141°
2026-04-18 04:35 42.72998 -87.69159 10586 ft 324 kts 141°
2026-04-18 04:35 42.71323 -87.66939 10768 ft 347 kts 140°
2026-04-18 04:35 42.69378 -87.64895 10923 ft 360 kts 160°
2026-04-18 04:36 42.66956 -87.64064 11345 ft 361 kts 179°
2026-04-18 04:36 42.64437 -87.63864 11980 ft 364 kts 181°
2026-04-18 04:36 42.61894 -87.63742 12645 ft 367 kts 182°
2026-04-18 04:36 42.59326 -87.63605 13285 ft 371 kts 181°
2026-04-18 04:37 42.56731 -87.63434 13900 ft 376 kts 181°
2026-04-18 04:37 42.54107 -87.63245 14376 ft 379 kts 181°
2026-04-18 04:37 42.51457 -87.63039 14942 ft 382 kts 180°
2026-04-18 04:37 42.48788 -87.62821 15484 ft 386 kts 180°
2026-04-18 04:38 42.46095 -87.62602 16040 ft 389 kts 180°
2026-04-18 04:38 42.43378 -87.62384 16599 ft 392 kts 181°
2026-04-18 04:38 42.40655 -87.62526 17111 ft 391 kts 192°
2026-04-18 04:38 42.37975 -87.63161 17647 ft 393 kts 194°
2026-04-18 04:39 42.35267 -87.63847 18132 ft 397 kts 194°
2026-04-18 04:39 42.32531 -87.64484 18604 ft 400 kts 193°
2026-04-18 04:39 42.29842 -87.65401 19078 ft 397 kts 204°
2026-04-18 04:39 42.27330 -87.66834 19513 ft 397 kts 207°
2026-04-18 04:40 42.24800 -87.68364 19881 ft 400 kts 207°
2026-04-18 04:40 42.22244 -87.69895 20264 ft 403 kts 207°
2026-04-18 04:40 42.19666 -87.71404 20667 ft 405 kts 206°
2026-04-18 04:40 42.17066 -87.72897 21044 ft 406 kts 206°
2026-04-18 04:41 42.14460 -87.74377 21437 ft 407 kts 206°
2026-04-18 04:41 42.11846 -87.75856 21784 ft 409 kts 206°
2026-04-18 04:41 42.09209 -87.77342 22110 ft 412 kts 205°
2026-04-18 04:41 42.06417 -87.78354 22430 ft 423 kts 189°
2026-04-18 04:42 42.03458 -87.78433 22910 ft 427 kts 184°
2026-04-18 04:42 42.00482 -87.78430 23342 ft 428 kts 185°
2026-04-18 04:42 41.97490 -87.78478 23645 ft 431 kts 185°
2026-04-18 04:42 41.94480 -87.78557 23938 ft 433 kts 185°
2026-04-18 04:43 41.91457 -87.78535 24280 ft 437 kts 181°
2026-04-18 04:43 41.88420 -87.78204 24627 ft 440 kts 178°
2026-04-18 04:43 41.85408 -87.77736 24926 ft 442 kts 177°
2026-04-18 04:43 41.82343 -87.77218 25214 ft 445 kts 177°
2026-04-18 04:44 41.79267 -87.76703 25504 ft 447 kts 177°
2026-04-18 04:44 41.76171 -87.76206 25816 ft 448 kts 177°
2026-04-18 04:44 41.73056 -87.75728 26042 ft 451 kts 177°
2026-04-18 04:44 41.69925 -87.75267 26258 ft 454 kts 178°
2026-04-18 04:45 41.67803 -87.74961 26447 ft 455 kts 178°
2026-04-18 04:45 41.64690 -87.74516 26750 ft 456 kts 178°
2026-04-18 04:45 41.61521 -87.74067 27029 ft 458 kts 178°
2026-04-18 04:45 41.58349 -87.73620 27286 ft 460 kts 178°
2026-04-18 04:46 41.55163 -87.73170 27521 ft 462 kts 178°
2026-04-18 04:46 41.51960 -87.72718 27739 ft 464 kts 178°
2026-04-18 04:46 41.48741 -87.72264 28005 ft 465 kts 178°
2026-04-18 04:46 41.45521 -87.71809 28407 ft 464 kts 178°
2026-04-18 04:47 41.42321 -87.71356 28829 ft 461 kts 178°
2026-04-18 04:47 41.39134 -87.70905 29221 ft 460 kts 178°
2026-04-18 04:47 41.35959 -87.70471 29697 ft 457 kts 178°
2026-04-18 04:47 41.32800 -87.70026 30071 ft 456 kts 178°
2026-04-18 04:48 41.29635 -87.69578 30207 ft 460 kts 178°
2026-04-18 04:48 41.26437 -87.69127 30368 ft 463 kts 178°
2026-04-18 04:48 41.23261 -87.68679 30595 ft 464 kts 178°
2026-04-18 04:48 41.20049 -87.68227 30886 ft 464 kts 178°
2026-04-18 04:49 41.16846 -87.67777 31197 ft 463 kts 178°
2026-04-18 04:49 41.13646 -87.67328 31528 ft 462 kts 178°
2026-04-18 04:49 41.10453 -87.66881 31834 ft 461 kts 179°
2026-04-18 04:49 41.07262 -87.66435 32203 ft 458 kts 179°
2026-04-18 04:50 41.04092 -87.65993 32523 ft 457 kts 179°
2026-04-18 04:50 41.00938 -87.65553 32859 ft 455 kts 179°
2026-04-18 04:50 40.97786 -87.65114 33165 ft 454 kts 179°
2026-04-18 04:50 40.94683 -87.64683 33459 ft 454 kts 179°
2026-04-18 04:51 40.91551 -87.64249 33746 ft 453 kts 179°
2026-04-18 04:51 40.88423 -87.63815 34017 ft 451 kts 179°
2026-04-18 04:51 40.85322 -87.63383 34425 ft 446 kts 179°
2026-04-18 04:51 40.82245 -87.62956 34749 ft 443 kts 179°
2026-04-18 04:52 40.79168 -87.62531 34788 ft 447 kts 179°
2026-04-18 04:52 40.72966 -87.61678 34808 ft 447 kts 179°
2026-04-18 04:53 40.66800 -87.60825 34817 ft 443 kts 179°
2026-04-18 04:53 40.60688 -87.59983 34816 ft 441 kts 179°
2026-04-18 04:54 40.54634 -87.59152 34818 ft 439 kts 179°
2026-04-18 04:54 40.48551 -87.58318 34836 ft 439 kts 179°
2026-04-18 04:55 40.42467 -87.57486 34828 ft 440 kts 179°
2026-04-18 04:55 40.36349 -87.56649 34863 ft 443 kts 179°
2026-04-18 04:56 40.27131 -87.55004 34875 ft 454 kts 169°
2026-04-18 04:56 40.21046 -87.52619 34866 ft 458 kts 168°
2026-04-18 04:57 40.14981 -87.50175 34879 ft 460 kts 168°
2026-04-18 04:57 40.08842 -87.47766 34869 ft 460 kts 168°
2026-04-18 04:58 40.02702 -87.45400 34821 ft 460 kts 168°
2026-04-18 04:58 39.96566 -87.43048 34826 ft 458 kts 169°
2026-04-18 04:59 39.90449 -87.40706 34835 ft 457 kts 169°
2026-04-18 04:59 39.84356 -87.38376 34853 ft 456 kts 169°
2026-04-18 05:00 39.78280 -87.36057 34858 ft 455 kts 169°
2026-04-18 05:00 39.72208 -87.33744 34851 ft 454 kts 170°
2026-04-18 05:01 39.66148 -87.31438 34832 ft 453 kts 170°
2026-04-18 05:01 39.60086 -87.29137 34845 ft 454 kts 170°
2026-04-18 05:02 39.54066 -87.26856 34826 ft 454 kts 170°
2026-04-18 05:02 39.47975 -87.24642 34834 ft 451 kts 175°
2026-04-18 05:03 39.41819 -87.23454 34844 ft 447 kts 179°
2026-04-18 05:03 39.35634 -87.22481 34860 ft 448 kts 180°
2026-04-18 05:04 39.29440 -87.21466 34841 ft 449 kts 179°
2026-04-18 05:04 39.23238 -87.20402 34858 ft 450 kts 179°
2026-04-18 05:05 39.17024 -87.19316 34868 ft 451 kts 178°
2026-04-18 05:05 39.10832 -87.18233 34866 ft 452 kts 178°
2026-04-18 05:06 39.04596 -87.17145 34857 ft 452 kts 178°
2026-04-18 05:06 38.98350 -87.16059 34877 ft 453 kts 178°
2026-04-18 05:07 38.92095 -87.14973 34878 ft 454 kts 178°
2026-04-18 05:07 38.85828 -87.13888 34878 ft 454 kts 178°
2026-04-18 05:08 38.79560 -87.12804 34875 ft 455 kts 177°
2026-04-18 05:08 38.73281 -87.11720 34882 ft 455 kts 177°
2026-04-18 05:09 38.67028 -87.10642 34889 ft 456 kts 177°
2026-04-18 05:09 38.60734 -87.09559 34906 ft 457 kts 177°
2026-04-18 05:10 38.54430 -87.08476 34897 ft 457 kts 177°
2026-04-18 05:10 38.48123 -87.07395 34898 ft 456 kts 177°
2026-04-18 05:11 38.41843 -87.06319 34905 ft 455 kts 177°
2026-04-18 05:11 38.35582 -87.05250 34904 ft 453 kts 177°
2026-04-18 05:12 38.29371 -87.04191 34907 ft 452 kts 177°
2026-04-18 05:12 38.23144 -87.03131 34907 ft 451 kts 177°
2026-04-18 05:13 38.16927 -87.02075 34905 ft 450 kts 177°
2026-04-18 05:13 38.10714 -87.01021 34906 ft 450 kts 178°
2026-04-18 05:14 38.04496 -86.99969 34915 ft 451 kts 178°
2026-04-18 05:14 37.98254 -86.98914 34915 ft 453 kts 178°
2026-04-18 05:15 37.91998 -86.97859 34917 ft 454 kts 178°
2026-04-18 05:15 37.85716 -86.96800 34909 ft 456 kts 179°
2026-04-18 05:16 37.79412 -86.95740 34914 ft 457 kts 179°
2026-04-18 05:16 37.73135 -86.94687 34909 ft 459 kts 179°
2026-04-18 05:17 37.66802 -86.93627 34889 ft 459 kts 180°
2026-04-18 05:17 37.60461 -86.92563 34917 ft 459 kts 180°
2026-04-18 05:18 37.54113 -86.91502 34931 ft 460 kts 180°
2026-04-18 05:18 37.47769 -86.90445 34937 ft 460 kts 180°
2026-04-18 05:19 37.41420 -86.89387 34924 ft 460 kts 181°
2026-04-18 05:19 37.35076 -86.88332 34940 ft 459 kts 181°
2026-04-18 05:20 37.28737 -86.87281 34943 ft 459 kts 181°
2026-04-18 05:20 37.22404 -86.86232 34945 ft 458 kts 181°
2026-04-18 05:21 37.16123 -86.85194 34937 ft 458 kts 181°
2026-04-18 05:21 37.09808 -86.84151 34941 ft 458 kts 181°
2026-04-18 05:22 37.03498 -86.83112 34951 ft 457 kts 181°
2026-04-18 05:22 36.97181 -86.82073 34959 ft 458 kts 181°
2026-04-18 05:23 36.90858 -86.81035 34947 ft 458 kts 182°
2026-04-18 05:23 36.84529 -86.79998 34956 ft 459 kts 182°
2026-04-18 05:24 36.78195 -86.78961 34960 ft 459 kts 182°
2026-04-18 05:24 36.71857 -86.77925 34963 ft 459 kts 182°
2026-04-18 05:25 36.65559 -86.76897 34971 ft 459 kts 182°
2026-04-18 05:25 36.59210 -86.75864 34978 ft 460 kts 182°
2026-04-18 05:26 36.52859 -86.74831 34977 ft 460 kts 182°
2026-04-18 05:26 36.46507 -86.73800 34990 ft 461 kts 182°
2026-04-18 05:27 36.40147 -86.72769 34969 ft 460 kts 182°
2026-04-18 05:27 36.33829 -86.71747 34976 ft 461 kts 182°
2026-04-18 05:28 36.27465 -86.70718 34994 ft 461 kts 182°
2026-04-18 05:28 36.21100 -86.69692 35001 ft 462 kts 182°
2026-04-18 05:29 36.14729 -86.68446 34990 ft 471 kts 173°
2026-04-18 05:29 36.11599 -86.67097 34997 ft 482 kts 163°
2026-04-18 05:29 36.08598 -86.65141 35011 ft 489 kts 158°
2026-04-18 05:30 36.02709 -86.60860 35009 ft 491 kts 157°
2026-04-18 05:30 35.96804 -86.56590 34999 ft 491 kts 158°
2026-04-18 05:31 35.90877 -86.52403 35008 ft 491 kts 158°
2026-04-18 05:31 35.84969 -86.48263 35018 ft 491 kts 158°
2026-04-18 05:32 35.79027 -86.44100 35012 ft 492 kts 158°
2026-04-18 05:32 35.73078 -86.39936 35011 ft 492 kts 158°
2026-04-18 05:33 35.67146 -86.35723 34991 ft 492 kts 157°
2026-04-18 05:33 35.61214 -86.31489 34999 ft 492 kts 157°
2026-04-18 05:34 35.55282 -86.27275 35005 ft 492 kts 158°
2026-04-18 05:34 35.49333 -86.23113 35031 ft 492 kts 158°
2026-04-18 05:35 35.43415 -86.18991 34999 ft 492 kts 157°
2026-04-18 05:35 35.37810 -86.13997 35028 ft 502 kts 146°
2026-04-18 05:36 35.32475 -86.08478 35029 ft 502 kts 147°
2026-04-18 05:36 35.27923 -86.03990 35037 ft 501 kts 148°
2026-04-18 05:37 35.25170 -86.01342 34650 ft 507 kts 148°
2026-04-18 05:37 35.22385 -85.98683 34061 ft 507 kts 148°
2026-04-18 05:37 35.19638 -85.96063 33361 ft 508 kts 148°
2026-04-18 05:37 35.16849 -85.93403 32652 ft 508 kts 148°
2026-04-18 05:38 35.14068 -85.90748 32122 ft 504 kts 148°
2026-04-18 05:38 35.11321 -85.88119 31660 ft 499 kts 148°
2026-04-18 05:38 35.08597 -85.85518 31178 ft 495 kts 148°
2026-04-18 05:38 35.05893 -85.82938 30702 ft 491 kts 147°
2026-04-18 05:39 35.03214 -85.80385 30234 ft 487 kts 148°
2026-04-18 05:39 35.00559 -85.77861 29718 ft 482 kts 147°
2026-04-18 05:39 34.97930 -85.75345 29210 ft 477 kts 147°
2026-04-18 05:39 34.95326 -85.72873 28700 ft 473 kts 147°
2026-04-18 05:40 34.92739 -85.70422 28234 ft 468 kts 147°
2026-04-18 05:40 34.90182 -85.68000 27737 ft 463 kts 147°
2026-04-18 05:40 34.87649 -85.65606 27297 ft 459 kts 147°
2026-04-18 05:40 34.85139 -85.63229 26821 ft 456 kts 147°
2026-04-18 05:41 34.82646 -85.60865 26361 ft 452 kts 147°
2026-04-18 05:41 34.80174 -85.58525 25901 ft 449 kts 147°
2026-04-18 05:41 34.77717 -85.56202 25523 ft 444 kts 147°
2026-04-18 05:41 34.75292 -85.53910 25150 ft 439 kts 147°
2026-04-18 05:42 34.72887 -85.51638 24726 ft 436 kts 146°
2026-04-18 05:42 34.70494 -85.49379 24275 ft 435 kts 146°
2026-04-18 05:42 34.68138 -85.47158 23814 ft 434 kts 146°
2026-04-18 05:42 34.65757 -85.44914 23301 ft 432 kts 146°
2026-04-18 05:43 34.63386 -85.42682 22807 ft 429 kts 146°
2026-04-18 05:43 34.61029 -85.40483 22331 ft 425 kts 146°
2026-04-18 05:43 34.58692 -85.38294 21878 ft 422 kts 146°
2026-04-18 05:43 34.56385 -85.36116 21437 ft 418 kts 145°
2026-04-18 05:44 34.54095 -85.33954 20994 ft 415 kts 145°
2026-04-18 05:44 34.51824 -85.31815 20543 ft 412 kts 145°
2026-04-18 05:44 34.49560 -85.29688 20120 ft 409 kts 145°
2026-04-18 05:44 34.47319 -85.27589 19695 ft 406 kts 145°
2026-04-18 05:45 34.45094 -85.25503 19281 ft 402 kts 145°
2026-04-18 05:45 34.42887 -85.23435 18823 ft 401 kts 145°
2026-04-18 05:45 34.40685 -85.21374 18386 ft 398 kts 145°
2026-04-18 05:45 34.38501 -85.19332 17911 ft 395 kts 145°
2026-04-18 05:46 34.36360 -85.17332 17449 ft 392 kts 144°
2026-04-18 05:46 34.34208 -85.15324 17055 ft 387 kts 144°
2026-04-18 05:46 34.32081 -85.13340 16613 ft 384 kts 144°
2026-04-18 05:46 34.29974 -85.11377 16186 ft 381 kts 144°
2026-04-18 05:47 34.27880 -85.09427 15762 ft 378 kts 144°
2026-04-18 05:47 34.25799 -85.07489 15339 ft 376 kts 144°
2026-04-18 05:47 34.23733 -85.05567 14914 ft 374 kts 144°
2026-04-18 05:47 34.21674 -85.03653 14485 ft 372 kts 143°
2026-04-18 05:48 34.19630 -85.01752 14089 ft 370 kts 143°
2026-04-18 05:48 34.17590 -84.99856 13648 ft 369 kts 143°
2026-04-18 05:48 34.15562 -84.97973 13215 ft 366 kts 143°
2026-04-18 05:48 34.13546 -84.96098 13030 ft 368 kts 142°
2026-04-18 05:49 34.11503 -84.94163 13011 ft 378 kts 141°
2026-04-18 05:49 34.09655 -84.91942 13000 ft 382 kts 128°
2026-04-18 05:49 34.08083 -84.89343 13003 ft 384 kts 124°
2026-04-18 05:49 34.06561 -84.86701 12989 ft 383 kts 124°
2026-04-18 05:50 34.05051 -84.84064 12995 ft 382 kts 124°
2026-04-18 05:50 34.03535 -84.81436 12989 ft 381 kts 124°
2026-04-18 05:50 34.02015 -84.78822 12996 ft 380 kts 125°
2026-04-18 05:50 34.00500 -84.76240 12976 ft 372 kts 125°
2026-04-18 05:51 33.99038 -84.73759 12976 ft 351 kts 125°
2026-04-18 05:51 33.97658 -84.71426 12872 ft 337 kts 125°
2026-04-18 05:51 33.96290 -84.69116 12452 ft 337 kts 125°
2026-04-18 05:51 33.94926 -84.66817 12075 ft 337 kts 125°
2026-04-18 05:52 33.93570 -84.64533 11716 ft 335 kts 124°
2026-04-18 05:52 33.92218 -84.62255 11362 ft 333 kts 124°
2026-04-18 05:52 33.90870 -84.59988 11000 ft 332 kts 124°
2026-04-18 05:52 33.89536 -84.57744 10638 ft 325 kts 124°
2026-04-18 05:53 33.88237 -84.55562 10261 ft 317 kts 124°
2026-04-18 05:53 33.86960 -84.53417 9916 ft 312 kts 124°
2026-04-18 05:53 33.85704 -84.51308 9535 ft 308 kts 124°
2026-04-18 05:53 33.84464 -84.49225 9148 ft 303 kts 125°
2026-04-18 05:54 33.83242 -84.47176 8779 ft 300 kts 125°
2026-04-18 05:54 33.82048 -84.45175 8415 ft 297 kts 126°
2026-04-18 05:54 33.80847 -84.43162 8054 ft 295 kts 126°
2026-04-18 05:54 33.79656 -84.41167 7708 ft 292 kts 126°
2026-04-18 05:55 33.78479 -84.39197 7395 ft 288 kts 126°
2026-04-18 05:55 33.77316 -84.37251 7079 ft 284 kts 127°
2026-04-18 05:55 33.76170 -84.35336 6786 ft 281 kts 127°
2026-04-18 05:55 33.75029 -84.33430 6497 ft 280 kts 127°
2026-04-18 05:56 33.73904 -84.31529 6183 ft 279 kts 123°
2026-04-18 05:56 33.73279 -84.29334 5863 ft 282 kts 95°
2026-04-18 05:56 33.73254 -84.26991 5591 ft 280 kts 90°
2026-04-18 05:56 33.73274 -84.24655 5287 ft 279 kts 90°
2026-04-18 05:57 33.73305 -84.20076 4699 ft 269 kts 90°
2026-04-18 05:57 33.73309 -84.17837 4341 ft 267 kts 91°
2026-04-18 05:57 33.73163 -84.15637 3976 ft 263 kts 108°
2026-04-18 05:58 33.72262 -84.13786 3638 ft 255 kts 139°
2026-04-18 05:58 33.70775 -84.12762 3337 ft 246 kts 169°
2026-04-18 05:58 33.69110 -84.12613 3061 ft 241 kts 183°
2026-04-18 05:58 33.67430 -84.12786 3003 ft 243 kts 198°
2026-04-18 05:59 33.66044 -84.13836 2969 ft 234 kts 233°
2026-04-18 05:59 33.65503 -84.15603 2988 ft 226 kts 262°
2026-04-18 05:59 33.65322 -84.17469 2978 ft 225 kts 264°
2026-04-18 05:59 33.65181 -84.19332 2982 ft 223 kts 264°
2026-04-18 06:00 33.65058 -84.21190 2986 ft 223 kts 265°
2026-04-18 06:00 33.64990 -84.23046 2990 ft 222 kts 268°
2026-04-18 06:00 33.64966 -84.24881 2977 ft 215 kts 269°
2026-04-18 06:00 33.64958 -84.26623 2996 ft 204 kts 269°
2026-04-18 06:01 33.64956 -84.28309 2980 ft 199 kts 269°
2026-04-18 06:01 33.64959 -84.29942 2866 ft 195 kts 268°
2026-04-18 06:01 33.64963 -84.31562 2549 ft 186 kts 268°
2026-04-18 06:01 33.64962 -84.33073 2288 ft 175 kts 268°
2026-04-18 06:02 33.64960 -84.34474 2088 ft 159 kts 268°
2026-04-18 06:02 33.64958 -84.35740 1858 ft 145 kts 268°
2026-04-18 06:02 33.64957 -84.36936 1689 ft 143 kts 268°
2026-04-18 06:02 33.64955 -84.38140 1509 ft 150 kts 269°
2026-04-18 06:03 33.64955 -84.39413 1304 ft 154 kts 270°
2026-04-18 06:03 33.64953 -84.40693 1093 ft 152 kts 270°
2026-04-18 06:03 33.64954 -84.41927 1005 ft 137 kts 271°
2026-04-18 06:03 33.64954 -84.42865 1005 ft 83 kts 270°
2026-04-18 06:04 33.64953 -84.43365 1004 ft 52 kts 270°
2026-04-18 06:04 33.64949 -84.43654 1006 ft 19 kts 266°
2026-04-18 06:04 33.64895 -84.43738 1005 ft 13 kts 195°
2026-04-18 06:04 33.64837 -84.43795 1005 ft 11 kts 231°
2026-04-18 06:05 33.64772 -84.43826 1005 ft 10 kts 174°
2026-04-18 06:05 33.64695 -84.43820 1005 ft 13 kts 180°
2026-04-18 06:05 33.64583 -84.43820 1005 ft 16 kts 181°
2026-04-18 06:05 33.64517 -84.43885 1005 ft 13 kts 260°
2026-04-18 06:06 33.64504 -84.43993 1005 ft 13 kts 261°
2026-04-18 06:06 33.64469 -84.44087 1005 ft 12 kts 225°
2026-04-18 06:06 33.64390 -84.44118 1005 ft 12 kts 179°
2026-04-18 06:06 33.64307 -84.44116 1005 ft 12 kts 178°
2026-04-18 06:07 33.64226 -84.44114 1005 ft 11 kts 179°
2026-04-18 06:07 33.64148 -84.44115 1005 ft 11 kts 181°
2026-04-18 06:07 33.64071 -84.44115 1005 ft 11 kts 180°
2026-04-18 06:07 33.63997 -84.44115 1005 ft 10 kts 180°
2026-04-18 06:08 33.63933 -84.44127 1005 ft 6 kts 219°
2026-04-18 06:08 33.63923 -84.44169 1005 ft 2 kts 266°
2026-04-18 06:08 33.63923 -84.44184 1005 ft 2 kts 270°
2026-04-18 06:08 33.63923 -84.44193 1005 ft 0 kts 270°